User: anonymous   Login
Location: Innerarity Island Observatory
(30.3139°N, 87.4867°W)
Time: 16:48:12
(UTC-06:00)
Language:

OPAL - Orbit

View from above orbital plane
View from above orbital plane
View from above satellite
View from above satellite

Ground track
Ground track

The orbit data is extracted from the following two-line orbital elements,

1 26063U 00004C   17058.87865963 -.00000007  00000-0  17877-4 0  9996
2 26063 100.2225  42.1403 0035798 256.4469 103.2722 14.36653825895689
Epoch (UTC): 27 February 2017 21:05:16
Eccentricity: 0.0035798
inclination: 100.2225°
perigee height: 744 km
apogee height: 795 km
right ascension of ascending node: 42.1403°
argument of perigee: 256.4469°
revolutions per day: 14.36653825
mean anomaly at epoch: 103.2722°
orbit number at epoch: 89568

The dashed part of the orbit path shows where the satellite is in the earth's shadow,  

DLR